User: anonymous   Login
Location: Unspecified
(0.0000°N, 0.0000°E)
Time: 12:18:57
(UTC+00:00)
Language:

Tiros 1 despin weight - Orbit

View from above orbital plane
View from above orbital plane
View from above satellite
View from above satellite

Ground track
Ground track

The orbit data is extracted from the following two-line orbital elements,

1 00115U 60002D   14293.99522069  .00004560  00000-0  60430-3 0  4969
2 00115 048.1640 120.9560 0036358 150.9686 343.5559 14.80926469906283
Epoch (UTC): 20 October 2014 23:53:07
Eccentricity: 0.0036358
inclination: 48.1640°
perigee height: 601 km
apogee height: 652 km
right ascension of ascending node: 120.9560°
argument of perigee: 150.9686°
revolutions per day: 14.80926469
mean anomaly at epoch: 343.5559°
orbit number at epoch: 90628

The dashed part of the orbit path shows where the satellite is in the earth's shadow,  

DLR